Change the Weather History Date:

Thursday, July 18, 2013

  Actual Average (KYKM) Record (KYKM)
Temperature  
Mean Temperature 75 °F 71 °F  
Max Temperature 97 °F 89 °F 105 °F (1960)
Min Temperature 54 °F 54 °F 41 °F (1986)
Degree Days  
Heating Degree Days 0 1  
Month to date heating degree days 18  
Since 1 June heating degree days 116  
Since 1 July heating degree days 18  
Cooling Degree Days 10 7  
Month to date cooling degree days 99  
Year to date cooling degree days 184  
Since 1 June cooling degree days 164  
Growing Degree Days 25 (Base 50)    
Moisture  
Dew Point 45 °F    
Average Humidity 37    
Maximum Humidity 72    
Minimum Humidity 10    
Precipitation  
Precipitation 0.00 in 0.01 in 0.30 in (1987)
Month to date precipitation 0.15  
Year to date precipitation 4.44  
Snow  
Snow 0.00 in 0.00 in 0.00 in (2002)
Month to date snowfall 0.0  
Year to date snowfall 8.6  
Since 1 July snowfall 0.0  
Snow Depth -    
Sea Level Pressure  
Sea Level Pressure 30.05 in    
Wind  
Wind Speed 10 mph (NW)    
Max Wind Speed 22 mph    
Max Gust Speed 29 mph    
Visibility 10 miles    
Events      
T = Trace of Precipitation, MM = Missing Value Source: NWS Daily Summary

Daily Weather History Graph

Daily Weather History Graph

Search for Another Location

Airport or City:

Trip Planner

Search our weather history database for the weather conditions in past years. The results will help you decide how hot, cold, wet, or windy it might be!

Date:

Astronomy

Jul. 18, 2013 Rise Set
Actual Time 5:25 AM PDT 8:50 PM PDT
Civil Twilight 4:47 AM PDT 9:28 PM PDT
Nautical Twilight 3:58 AM PDT 10:17 PM PDT
Astronomical Twilight 2:53 AM PDT 11:21 PM PDT
Moon 4:51 PM PDT (7/18) 1:23 AM PDT (7/18)
Length of Visible Light 16h 40m
Length of Day
15h 24m
Waxing Gibbous, 78% of the Moon is Illuminated
Jul 18
Waxing Gibbous
Jul 22
Full
Jul 29
Last Quarter
Aug 6
New
Aug 14
First Quarter

Hourly Weather History & Observations

Time (PDT) Temp. Dew Point Humidity Pressure Visibility Wind Dir Wind Speed Gust Speed Precip Events Conditions
12:53 AM 64.9 °F 46.9 °F 52% 30.04 in 10.0 mi NW 16.1 mph 25.3 mph N/A   Clear
1:53 AM 66.0 °F 44.1 °F 45% 30.04 in 10.0 mi NW 21.9 mph 27.6 mph N/A   Clear
2:53 AM 64.0 °F 45.0 °F 50% 30.06 in 10.0 mi NW 15.0 mph - N/A   Clear
3:53 AM 62.1 °F 44.1 °F 52% 30.06 in 10.0 mi North 6.9 mph - N/A   Clear
4:53 AM 59.0 °F 45.0 °F 60% 30.08 in 10.0 mi ENE 5.8 mph - N/A   Clear
5:53 AM 54.0 °F 45.0 °F 72% 30.11 in 10.0 mi Calm Calm - N/A   Clear
6:53 AM 60.1 °F 46.9 °F 62% 30.12 in 10.0 mi Calm Calm - N/A   Clear
7:53 AM 66.0 °F 46.9 °F 50% 30.13 in 10.0 mi Calm Calm - N/A   Clear
8:53 AM 72.0 °F 48.0 °F 43% 30.12 in 10.0 mi SE 5.8 mph - N/A   Clear
9:53 AM 75.0 °F 48.9 °F 40% 30.11 in 10.0 mi Variable 3.5 mph - N/A   Clear
10:53 AM 82.0 °F 48.0 °F 30% 30.10 in 10.0 mi Calm Calm - N/A   Clear
11:53 AM 84.9 °F 50.0 °F 30% 30.09 in 10.0 mi Calm Calm - N/A   Clear
12:53 PM 89.1 °F 51.1 °F 27% 30.07 in 10.0 mi SSE 6.9 mph - N/A   Clear
1:53 PM 91.9 °F 27.0 °F 10% 30.05 in 10.0 mi South 5.8 mph - N/A   Clear
2:53 PM 95.0 °F 35.1 °F 12% 30.03 in 10.0 mi Variable 3.5 mph - N/A   Clear
3:53 PM 95.0 °F 37.0 °F 13% 30.01 in 10.0 mi Calm Calm - N/A   Clear
4:53 PM 96.1 °F 39.9 °F 14% 29.99 in 10.0 mi West 5.8 mph - N/A   Clear
5:53 PM 95.0 °F 45.0 °F 18% 29.99 in 10.0 mi West 8.1 mph - N/A   Clear
6:53 PM 89.1 °F 42.1 °F 19% 29.99 in 10.0 mi NW 16.1 mph - N/A   Clear
7:53 PM 84.0 °F 39.9 °F 21% 30.00 in 10.0 mi NNW 20.7 mph 28.8 mph N/A   Clear
8:53 PM 79.0 °F 45.0 °F 30% 30.01 in 10.0 mi NW 16.1 mph 23.0 mph N/A   Clear
9:53 PM 77.0 °F 48.0 °F 36% 30.02 in 10.0 mi NW 17.3 mph - N/A   Clear
10:53 PM 73.0 °F 51.1 °F 46% 30.02 in 10.0 mi NW 11.5 mph - N/A   Clear
11:53 PM 71.1 °F 52.0 °F 51% 30.02 in 10.0 mi NW 13.8 mph - N/A   Clear